[[{"header":{"parameterUnit":"m.s-1","parameterCategory":1,"la1":30.2991,"la2":30.254,"lo1":-89.0895,"lo2":-89.0444,"dy":0.0017,"dx":0.0017,"nx":28,"ny":28,"refTime":"2025-05-27T21:00:00:Z","depth":0,"parameterNumber":2,"parameterNumberName":"U-component_of_WINDS"},"data":[0,0,0,0,0,0,0,0,0,0,0,0,0,0,0,0,0,0,0,0,0,0,0,0,0,0,0,0,0,0,0,0,0,0,0,0,0,0,0,0,0,0,0,0,0,0,0,0,0,0,0,0,0,0,0,0,0,0,-0.8197,-0.8196,0,-0.8064,-0.8062,-0.8061,-0.8022,-0.8023,-0.8023,-0.8024,-0.7885,-0.7881,-0.7877,0,0,0,0,0,0,0,0,0,0,0,0,0,-0.8415,-0.8412,-0.8197,-0.8196,-0.8194,-0.8064,-0.8062,-0.806,-0.8022,-0.8023,-0.8023,-0.8024,-0.7887,-0.7881,-0.7876,0,0,0,0,0,0,0,0,0,0,0,0,0,-0.8305,-0.841,-0.8198,-0.8159,-0.8154,-0.8064,-0.8062,-0.806,-0.8022,-0.8023,-0.8024,-0.8025,-0.7888,-0.7882,-0.7875,-0.7814,0,0,-0.7855,-0.7853,0,0,0,0,0,0,0,0,-0.8312,-0.8297,-0.8166,-0.8162,-0.8156,-0.8061,-0.8088,-0.7977,-0.8021,-0.8072,-0.8024,-0.8025,-0.7942,-0.7932,-0.7904,-0.7807,-0.7801,-0.7855,-0.7851,-0.7848,-0.7846,0,0,0,0,0,0,0,-0.8319,-0.8303,-0.8144,-0.8164,-0.8158,-0.8147,-0.8133,-0.8067,-0.8003,-0.8068,-0.8064,-0.8049,-0.794,-0.7911,-0.7901,-0.7799,-0.7855,-0.7849,-0.7845,-0.7843,-0.7643,-0.7641,0,0,0,0,0,0,-0.8334,-0.8309,-0.8149,-0.814,-0.8238,-0.8143,-0.8126,-0.809,-0.8003,-0.7991,-0.8048,-0.8048,-0.7921,-0.7908,-0.7896,-0.7816,-0.7848,-0.7842,-0.7838,-0.7644,-0.7642,-0.7641,0,0,0,0,0,0,-0.8339,-0.832,-0.8154,-0.8224,-0.8202,-0.8138,-0.8097,-0.8087,-0.8058,-0.7989,-0.7977,-0.803,-0.7922,-0.7905,-0.7834,-0.781,-0.7839,-0.7833,-0.7646,-0.7643,-0.7641,-0.7657,0,0,0,0,0,0,-0.8345,-0.8322,-0.8298,-0.8224,-0.8198,-0.8096,-0.8096,-0.8084,-0.8047,-0.8045,-0.7969,-0.7957,-0.7921,-0.7844,-0.7828,-0.7802,-0.7828,-0.7647,-0.7645,-0.7642,-0.7658,-0.7656,-0.7653,0,0,0,0,0,-0.8353,-0.8308,-0.8298,-0.8278,-0.8168,-0.8094,-0.808,-0.804,-0.8045,-0.802,-0.7976,-0.796,-0.7816,-0.7837,-0.7818,-0.779,-0.7649,-0.7645,-0.7642,-0.7659,-0.7656,-0.7653,0,0,0,0,0,0,-0.8381,-0.8298,-0.8285,-0.8215,-0.8162,-0.8088,-0.8056,-0.8038,-0.7982,-0.7982,-0.7934,-0.7917,-0.7849,-0.7813,-0.7838,-0.7725,-0.7732,-0.7725,-0.7751,-0.7747,-0.7745,-0.7755,-0.7823,0,0,0,0,0,-0.838,-0.8328,-0.8257,-0.8202,-0.8176,-0.8121,-0.8087,-0.806,-0.8004,-0.7981,-0.7931,-0.7876,-0.7818,-0.7781,-0.7724,-0.7653,-0.7635,-0.7625,-0.7622,-0.7621,-0.7614,-0.7572,-0.7566,-0.763,-0.763,-0.7631,0,0,-0.8375,-0.8323,-0.8293,-0.8206,-0.8162,-0.8108,-0.8102,-0.8045,-0.8004,-0.7972,-0.7902,-0.7864,-0.7799,-0.7727,-0.7693,-0.7694,-0.7593,-0.7617,-0.7616,-0.761,-0.7568,-0.7562,-0.7557,-0.7628,-0.7629,-0.7629,0,0,-0.8339,-0.8295,-0.8243,-0.8199,-0.8133,-0.8096,-0.8084,-0.8012,-0.7985,-0.7914,-0.7888,-0.7838,-0.774,-0.7694,-0.7658,-0.7604,-0.7586,-0.7587,-0.7573,-0.7533,-0.7528,-0.7523,-0.7501,-0.7494,-0.7581,-0.7581,-0.7581,0,-0.8342,-0.826,-0.8219,-0.8163,-0.8125,-0.8093,-0.804,-0.7999,-0.7917,-0.7891,-0.7894,-0.7769,-0.7723,-0.7639,-0.7626,-0.7599,-0.7581,-0.7594,-0.7532,-0.7527,-0.7522,-0.75,-0.7493,-0.7582,-0.7582,-0.7581,-0.7581,0,-0.8265,-0.8209,-0.8175,-0.8096,-0.8054,-0.8,-0.795,-0.7912,-0.7889,-0.7852,-0.7779,-0.7723,-0.7653,-0.7632,-0.7609,-0.7544,-0.7547,-0.7542,-0.7547,-0.7516,-0.7496,-0.7487,-0.7582,-0.7582,-0.7582,-0.7582,0,0,-0.8243,-0.8142,-0.813,-0.8093,-0.8017,-0.7972,-0.7916,-0.7848,-0.7816,-0.776,-0.771,-0.7628,-0.7622,-0.7581,-0.7553,-0.7517,-0.7475,-0.7516,-0.7514,-0.7509,-0.7398,-0.7401,-0.7392,-0.7464,-0.7462,-0.7461,-0.7403,0,-0.8196,-0.8094,-0.8055,-0.7971,-0.7917,-0.7886,-0.7837,-0.7784,-0.7748,-0.7696,-0.7655,-0.7597,-0.7595,-0.7569,-0.7533,-0.7488,-0.7452,-0.7492,-0.7415,-0.7413,-0.7431,-0.7382,-0.7385,-0.7333,-0.7395,-0.7393,-0.7392,0,-0.8127,-0.807,-0.7981,-0.791,-0.7886,-0.7842,-0.7776,-0.7728,-0.7667,-0.7642,-0.7596,-0.757,-0.7508,-0.7519,-0.7432,-0.746,-0.7427,-0.74,-0.7397,-0.7386,-0.74,-0.7368,-0.7315,-0.7307,-0.7379,-0.738,-0.7381,0,-0.8117,-0.8019,-0.7952,-0.7922,-0.7838,-0.7807,-0.7771,-0.7711,-0.7672,-0.7614,-0.7588,-0.7524,-0.7489,-0.7439,-0.7395,-0.7408,-0.7312,-0.732,-0.7288,-0.7289,-0.7268,-0.727,-0.7207,-0.725,-0.725,-0.725,-0.725,0,-0.8067,-0.8014,-0.7947,-0.7906,-0.7844,-0.7799,-0.7739,-0.77,-0.7647,-0.7597,-0.7567,-0.752,-0.7467,-0.7413,-0.7379,-0.7311,-0.7295,-0.7273,-0.7264,-0.7274,-0.7277,-0.725,-0.7252,-0.7248,-0.7249,-0.7249,-0.7249,0,-0.8046,-0.7999,-0.7924,-0.785,-0.783,-0.7788,-0.7724,-0.7682,-0.7644,-0.7581,-0.7564,-0.7504,-0.7439,-0.7391,-0.7307,-0.7284,-0.7211,-0.7203,-0.7231,-0.7226,-0.7197,-0.72,-0.7114,-0.7099,-0.7154,-0.7153,-0.7153,0,-0.8016,-0.7974,-0.7895,-0.786,-0.7823,-0.7766,-0.7726,-0.768,-0.764,-0.7566,-0.7533,-0.7466,-0.741,-0.7307,-0.7256,-0.7191,-0.718,-0.7154,-0.717,-0.7181,-0.7177,-0.7179,-0.7174,-0.7151,-0.7151,-0.7151,-0.715,0,-0.7968,-0.7947,-0.7891,-0.7826,-0.7779,-0.7725,-0.7671,-0.7644,-0.7588,-0.7544,-0.7477,-0.7433,-0.7347,-0.728,-0.721,-0.7172,-0.7151,-0.7146,-0.7135,-0.7144,-0.7162,-0.715,-0.7223,-0.7148,-0.7148,-0.7148,-0.7148,-0.7149,-0.794,-0.7901,-0.7838,-0.7776,-0.7731,-0.7681,-0.7637,-0.7594,-0.7537,-0.7463,-0.744,-0.737,-0.7308,-0.7212,-0.7173,-0.7117,-0.7117,-0.7102,-0.7097,-0.7094,-0.7093,-0.7172,-0.7104,-0.7104,-0.7104,-0.7104,-0.7104,0,-0.7889,-0.7848,-0.7791,-0.7716,-0.7666,-0.7652,-0.7591,-0.7551,-0.749,-0.7434,-0.7379,-0.7302,-0.7236,-0.718,-0.7111,-0.7078,-0.7066,-0.7061,-0.7062,-0.7053,-0.7098,-0.7113,-0.7071,-0.7071,-0.7071,-0.7071,-0.7071,-0.7071,-0.7857,-0.7788,-0.7759,-0.7667,-0.7625,-0.7556,-0.7523,-0.7476,-0.7431,-0.7346,-0.7291,-0.7255,-0.7198,-0.7125,-0.7064,-0.7049,-0.7025,-0.7021,-0.7004,-0.7046,-0.705,-0.7054,-0.7068,-0.7017,-0.7017,-0.6963,-0.6962,-0.6962]},{"header":{"parameterUnit":"m.s-1","parameterCategory":1,"la1":30.2991,"la2":30.254,"lo1":-89.0895,"lo2":-89.0444,"dy":0.0017,"dx":0.0017,"nx":28,"ny":28,"refTime":"2025-05-27T21:00:00:Z","depth":0,"parameterNumber":3,"parameterNumberName":"V-component_of_WINDS"},"data":[0,0,0,0,0,0,0,0,0,0,0,0,0,0,0,0,0,0,0,0,0,0,0,0,0,0,0,0,0,0,0,0,0,0,0,0,0,0,0,0,0,0,0,0,0,0,0,0,0,0,0,0,0,0,0,0,0,0,5.0117,5.0117,0,5.0132,5.0132,5.0132,5.0099,5.0097,5.0096,5.0095,5.0109,5.011,5.0111,0,0,0,0,0,0,0,0,0,0,0,0,0,5.0059,5.006,5.0117,5.0117,5.0117,5.0132,5.0132,5.0132,5.0099,5.0097,5.0096,5.0095,5.0108,5.011,5.0111,0,0,0,0,0,0,0,0,0,0,0,0,0,5.008,5.0061,5.0117,5.0102,5.0101,5.0132,5.0132,5.0132,5.0099,5.0097,5.0096,5.0094,5.0108,5.011,5.0112,5.0156,0,0,5.0118,5.0119,0,0,0,0,0,0,0,0,5.0079,5.0082,5.0104,5.0103,5.0102,5.0112,5.0116,5.014,5.0099,5.01,5.0095,5.0094,5.0111,5.0113,5.0119,5.0157,5.0157,5.0118,5.0119,5.012,5.0121,0,0,0,0,0,0,0,5.0077,5.0081,5.0123,5.0105,5.0103,5.0095,5.0096,5.0121,5.0114,5.01,5.0097,5.01,5.011,5.0117,5.0119,5.0157,5.0118,5.012,5.0121,5.0122,5.0236,5.0237,0,0,0,0,0,0,5.0078,5.008,5.0122,5.0123,5.0086,5.0097,5.0099,5.011,5.0114,5.0113,5.0101,5.0098,5.0114,5.0116,5.0119,5.0173,5.012,5.0122,5.0123,5.0234,5.0236,5.0238,0,0,0,0,0,0,5.0077,5.0082,5.0121,5.0101,5.0106,5.01,5.0113,5.0111,5.0118,5.0115,5.0113,5.0109,5.0113,5.0116,5.0148,5.0173,5.0123,5.0125,5.0232,5.0234,5.0237,5.0281,0,0,0,0,0,0,5.0075,5.0082,5.0099,5.0102,5.0107,5.015,5.0115,5.0113,5.0122,5.0118,5.0122,5.0121,5.0112,5.0145,5.015,5.0175,5.0126,5.0229,5.0233,5.0236,5.0277,5.0285,5.0292,0,0,0,0,0,5.0073,5.0109,5.01,5.0105,5.0128,5.0152,5.0155,5.0144,5.0124,5.0141,5.0139,5.0121,5.017,5.0149,5.0154,5.018,5.0228,5.0232,5.0236,5.0274,5.0284,5.0291,0,0,0,0,0,0,5.0108,5.0109,5.0099,5.0137,5.0145,5.0146,5.0167,5.0154,5.0166,5.0162,5.0148,5.0149,5.0184,5.0185,5.0161,5.0225,5.0195,5.0201,5.0223,5.0232,5.0239,5.0238,5.0128,0,0,0,0,0,5.012,5.014,5.014,5.0173,5.0178,5.0172,5.0182,5.0174,5.0181,5.0184,5.0184,5.0191,5.0208,5.022,5.0235,5.0277,5.0279,5.0298,5.0305,5.0311,5.0316,5.0341,5.035,5.0251,5.0251,5.0251,0,0,5.0145,5.0148,5.0161,5.0181,5.0186,5.0207,5.0175,5.0198,5.0214,5.0187,5.0218,5.0218,5.0226,5.0263,5.028,5.0265,5.0344,5.0316,5.0321,5.0323,5.0346,5.0355,5.0363,5.0254,5.0254,5.0253,0,0,5.0201,5.0205,5.0235,5.0242,5.0251,5.0247,5.0254,5.0258,5.0258,5.0289,5.027,5.0288,5.0317,5.0324,5.0332,5.0394,5.0379,5.0399,5.0437,5.0461,5.0469,5.0476,5.05,5.0508,5.0404,5.0404,5.0404,0,5.0231,5.0263,5.0252,5.0278,5.0287,5.0265,5.0296,5.0302,5.0315,5.0323,5.0306,5.0344,5.0347,5.0388,5.0403,5.0409,5.0418,5.0399,5.0469,5.0475,5.0481,5.0504,5.0513,5.0407,5.0407,5.0406,5.0406,0,5.03,5.0322,5.0345,5.0361,5.0373,5.0401,5.0394,5.0408,5.0399,5.0397,5.043,5.0433,5.045,5.0459,5.0449,5.0498,5.0489,5.0471,5.0441,5.0494,5.0515,5.0524,5.0411,5.041,5.0409,5.0408,0,0,5.0377,5.0389,5.0397,5.0405,5.0414,5.0432,5.0459,5.0477,5.049,5.05,5.0523,5.055,5.0534,5.0542,5.0533,5.0554,5.0606,5.0533,5.0533,5.0548,5.0663,5.0678,5.0688,5.0596,5.0597,5.0599,5.0663,0,5.0435,5.0484,5.0476,5.0523,5.0545,5.0525,5.055,5.0558,5.0558,5.0576,5.0575,5.0595,5.0571,5.0576,5.0596,5.0596,5.0629,5.0591,5.0618,5.0619,5.0618,5.0699,5.0714,5.0775,5.0671,5.0673,5.0673,0,5.0509,5.0524,5.0574,5.0583,5.0591,5.0613,5.0631,5.0648,5.0658,5.0656,5.0667,5.0655,5.0683,5.0653,5.0692,5.0666,5.0677,5.0679,5.0681,5.0684,5.065,5.0706,5.0794,5.0804,5.0686,5.0685,5.0684,0,5.0563,5.0596,5.0631,5.0638,5.0648,5.0664,5.0669,5.0677,5.069,5.0704,5.0712,5.0729,5.0739,5.0753,5.0746,5.0725,5.0787,5.0756,5.0787,5.0788,5.0802,5.0802,5.0895,5.0807,5.0807,5.0807,5.0806,0,5.0629,5.0661,5.0656,5.0677,5.0713,5.0703,5.0739,5.0741,5.0749,5.0771,5.0754,5.0775,5.0764,5.0785,5.0779,5.0814,5.0818,5.0818,5.0816,5.082,5.082,5.0828,5.0824,5.0809,5.0808,5.0808,5.0808,0,5.0695,5.0693,5.073,5.0738,5.0741,5.0767,5.0773,5.0794,5.0793,5.0821,5.0827,5.0825,5.0848,5.0843,5.0867,5.0864,5.0908,5.09,5.0905,5.0904,5.0936,5.0934,5.1039,5.1053,5.0954,5.0955,5.0956,0,5.0738,5.0763,5.0774,5.0789,5.0796,5.0818,5.0831,5.0824,5.0838,5.0852,5.0872,5.0893,5.0911,5.0949,5.0949,5.0969,5.0962,5.0998,5.0965,5.0969,5.0965,5.0965,5.0968,5.1004,5.1006,5.1006,5.1007,0,5.0816,5.0814,5.0834,5.0855,5.0872,5.0887,5.09,5.0913,5.0906,5.0923,5.0948,5.0962,5.0988,5.1011,5.1029,5.1034,5.102,5.1018,5.1026,5.1031,5.1034,5.1035,5.0925,5.1015,5.1014,5.1014,5.1013,5.1013,5.0873,5.0895,5.0908,5.0931,5.0941,5.0955,5.0976,5.0978,5.0999,5.1021,5.1015,5.1043,5.1054,5.1077,5.1085,5.1107,5.1093,5.1105,5.1109,5.1112,5.1117,5.103,5.111,5.1109,5.1109,5.1109,5.1109,0,5.0951,5.0959,5.0981,5.1002,5.1021,5.1008,5.1023,5.1039,5.1065,5.1077,5.1095,5.1124,5.1147,5.115,5.1171,5.1188,5.1183,5.1194,5.1194,5.1195,5.1127,5.1118,5.1199,5.1199,5.1199,5.1199,5.1199,5.1199,5.0995,5.1032,5.1032,5.1075,5.1082,5.1111,5.1121,5.1134,5.1144,5.1178,5.1197,5.1199,5.1208,5.123,5.125,5.1251,5.126,5.1275,5.1273,5.1209,5.12,5.1191,5.1183,5.1276,5.1276,5.134,5.134,5.1341]}]]